| time (UTC) | temp C | wind direction | speed KPH | gust KPH | rain 1hr cm | rain 24hr cm | rain mn cm | humidity % | barometer mb |
| 20260902120003 | 20 | 12 | 0.0 | 0.0 | 0.00 | 0.00 | 0.00 | 91 | 1021.2 |
| 20260902115003 | 20 | 12 | 0.0 | 0.0 | 0.00 | 0.00 | 0.00 | 91 | 1021.1 |
| 20260902114003 | 20 | 12 | 0.0 | 0.0 | 0.00 | 0.00 | 0.00 | 91 | 1021.1 |
| 20260902113003 | 20 | 12 | 0.0 | 0.0 | 0.00 | 0.00 | 0.00 | 91 | 1021.0 |
| 20260902112003 | 20 | 12 | 0.0 | 0.0 | 0.00 | 0.00 | 0.00 | 91 | 1020.8 |
| 20260902111003 | 20 | 12 | 0.0 | 0.0 | 0.00 | 0.00 | 0.00 | 91 | 1020.8 |
| 20260902110004 | 20 | 12 | 0.0 | 0.0 | 0.00 | 0.00 | 0.00 | 91 | 1020.6 |
| 20260902105002 | 20 | 12 | 0.0 | 0.0 | 0.00 | 0.00 | 0.00 | 91 | 1020.6 |
| 20260902104002 | 20 | 12 | 0.0 | 0.0 | 0.00 | 0.00 | 0.00 | 91 | 1020.5 |
| 20260902103003 | 20 | 12 | 0.0 | 0.0 | 0.00 | 0.00 | 0.00 | 91 | 1020.5 |
| 20260902102003 | 20 | 12 | 0.0 | 0.0 | 0.00 | 0.00 | 0.00 | 91 | 1020.5 |
| 20260902101003 | 21 | 12 | 0.0 | 0.0 | 0.00 | 0.00 | 0.00 | 91 | 1020.4 |
| 20260902100003 | 21 | 12 | 0.0 | 0.0 | 0.00 | 0.00 | 0.00 | 91 | 1020.4 |
| 20260902095003 | 21 | 12 | 0.0 | 0.0 | 0.00 | 0.00 | 0.00 | 91 | 1020.3 |
| 20260902094003 | 21 | 12 | 0.0 | 0.0 | 0.00 | 0.00 | 0.00 | 91 | 1020.2 |
| 20260902093003 | 21 | 12 | 0.0 | 0.0 | 0.00 | 0.00 | 0.00 | 91 | 1020.2 |
| 20260902082002 | 21 | 12 | 0.0 | 0.0 | 0.00 | 0.00 | 0.00 | 91 | 1019.8 |
| 20260902081003 | 21 | 12 | 0.0 | 0.0 | 0.00 | 0.00 | 0.00 | 91 | 1019.7 |
| 20260902080002 | 21 | 12 | 0.0 | 0.0 | 0.00 | 0.00 | 0.00 | 91 | 1019.8 |
| 20260902075003 | 21 | 12 | 0.0 | 0.0 | 0.00 | 0.00 | 0.00 | 91 | 1019.7 |
| 20260902074003 | 21 | 12 | 0.0 | 0.0 | 0.00 | 0.00 | 0.00 | 91 | 1019.7 |
| 20260902073003 | 21 | 12 | 0.0 | 0.0 | 0.00 | 0.00 | 0.00 | 90 | 1019.7 |
| 20260902025003 | 23 | 12 | 0.0 | 0.0 | 0.00 | 0.00 | 0.00 | 87 | 1020.3 |
| 20260902024003 | 23 | 12 | 0.0 | 0.0 | 0.00 | 0.00 | 0.00 | 87 | 1020.3 |
| 20260902023003 | 23 | 12 | 0.0 | 0.0 | 0.00 | 0.00 | 0.00 | 87 | 1020.2 |
| 20260902022003 | 24 | 12 | 0.0 | 0.0 | 0.00 | 0.00 | 0.00 | 87 | 1020.1 |
| 20260902021003 | 24 | 12 | 0.0 | 0.0 | 0.00 | 0.00 | 0.00 | 86 | 1019.9 |
| 20260902020002 | 24 | 12 | 0.0 | 0.0 | 0.00 | 0.00 | 0.00 | 86 | 1019.9 |
| 20260901205003 | 32 | 5 | 4.8 | 9.7 | 0.00 | 0.10 | 0.00 | 57 | 1019.5 |
| 20260901204003 | 32 | 5 | 1.6 | 4.8 | 0.00 | 0.10 | 0.00 | 57 | 1019.7 |
| 20260901203003 | 31 | 5 | 6.4 | 9.7 | 0.00 | 0.10 | 0.00 | 59 | 1020.0 |
| 20260901202003 | 31 | 5 | 3.2 | 8.0 | 0.00 | 0.10 | 0.00 | 57 | 1020.1 |
| 20260901201003 | 31 | 5 | 3.2 | 4.8 | 0.00 | 0.10 | 0.00 | 61 | 1020.2 |
| 20260901200003 | 31 | 5 | 4.8 | 9.7 | 0.00 | 0.10 | 0.00 | 55 | 1020.1 |
| 20260901124003 | 20 | 280 | 0.0 | 0.0 | 0.00 | 0.10 | 0.00 | 91 | 1022.5 |
| 20260901123003 | 20 | 280 | 0.0 | 0.0 | 0.00 | 0.10 | 0.00 | 91 | 1022.5 |
| 20260901122003 | 19 | 280 | 0.0 | 0.0 | 0.00 | 0.10 | 0.00 | 91 | 1022.4 |
| 20260901121003 | 19 | 280 | 0.0 | 0.0 | 0.00 | 0.10 | 0.00 | 91 | 1022.4 |